Location: Exeidioux
(45.6312°N, 1.6819°E)
Time: 17:25:20
(UTC+00:00)

Meteor 1-11 Rocket - Pass Details

Date: 03 March 2021
Orbit: 831 x 916 km, 81.2° (Epoch: 11 April)

Event Time Altitude Azimuth Distance (km) Brightness Sun altitude
Rises 19:23:20 0° 174° (S) 3,468 6.7 -18.3°
Reaches altitude 10° 19:25:50 10° 170° (S) 2,521 6.0 -18.7°
Maximum altitude 19:31:22 54° 95° (E) 1,046 3.8 -19.7°
Drops below altitude 10° 19:36:50 10° 20° (NNE) 2,484 6.1 -20.6°
Sets 19:39:17 0° 16° (NNE) 3,413 6.8 -21.0°
